EW4538 Weather Reports


time (UTC)temp
F
wind
direction
speed
knots
gust
knots
rain 1hr
in
rain 24hr
in
rain mn
in
humidity
%
barometer
mb
20260503054804 54 120 0.0 1.7 0.00 0.02 0.00 77 1022.5
20260503053805 54 120 1.7 2.6 0.00 0.02 0.00 76 1022.5
20260503053304 54 121 1.7 2.6 0.00 0.02 0.00 75 1022.6
20260503051804 56 122 0.0 0.9 0.00 0.02 0.00 73 1022.7
20260503051304 56 122 0.0 0.0 0.00 0.02 0.00 72 1022.7
20260503050805 56 122 0.0 0.9 0.00 0.02 0.00 72 1022.7
20260503050305 56 122 0.0 2.6 0.00 0.02 0.00 73 1022.7
20260503044804 56 122 1.7 1.7 0.00 0.02 0.02 71 1022.5
20260503044304 57 122 0.9 1.7 0.00 0.02 0.02 70 1022.5
20260503043804 57 122 0.9 1.7 0.00 0.02 0.02 70 1022.5
20260503043304 57 122 1.7 2.6 0.00 0.02 0.02 69 1022.5
20260503041805 59 122 1.7 2.6 0.00 0.02 0.02 65 1022.5
20260503041305 60 122 0.0 0.9 0.00 0.02 0.02 64 1022.4
20260503040804 60 122 0.0 0.0 0.00 0.02 0.02 63 1022.3
20260503040305 60 122 0.0 0.0 0.00 0.02 0.02 62 1022.2
20260503034805 61 122 0.0 0.0 0.00 0.02 0.02 60 1022.2
20260503034304 62 122 0.0 0.0 0.00 0.02 0.02 59 1022.3
20260503033805 62 122 0.0 0.0 0.00 0.02 0.02 57 1022.2
20260503033305 62 122 0.0 1.7 0.00 0.02 0.02 56 1022.2
20260503031804 64 122 1.7 2.6 0.00 0.02 0.02 54 1022.0
20260503031304 64 122 1.7 2.6 0.00 0.02 0.02 54 1022.0
20260503030305 64 122 2.6 4.3 0.00 0.02 0.02 52 1021.9
20260503024805 64 123 2.6 4.3 0.00 0.02 0.02 51 1021.9
20260503024305 64 123 2.6 2.6 0.00 0.02 0.02 51 1021.9
20260503023805 65 123 2.6 4.3 0.00 0.02 0.02 51 1021.9
20260503023305 65 122 2.6 7.8 0.00 0.02 0.02 50 1021.7
20260503020805 67 91 2.6 7.0 0.00 0.02 0.02 46 1021.1
20260503020305 67 102 5.2 7.8 0.00 0.02 0.02 46 1021.0
20260503014304 68 139 5.2 7.8 0.00 0.02 0.02 44 1020.9
20260503013804 68 66 4.3 4.3 0.00 0.02 0.02 44 1021.0
20260503013304 68 46 2.6 2.6 0.00 0.02 0.02 44 1021.0
20260503011804 69 46 1.7 2.6 0.00 0.02 0.02 43 1020.9
20260503010804 69 44 0.0 1.7 0.00 0.02 0.02 47 1020.7
20260503010304 70 44 0.9 1.7 0.00 0.02 0.02 41 1020.7
20260503004805 71 44 0.0 0.9 0.00 0.02 0.02 44 1020.8
20260503004304 72 44 0.0 0.9 0.00 0.02 0.02 43 1020.8
20260503003804 72 44 0.9 1.7 0.00 0.02 0.02 41 1020.7
20260503003304 73 44 0.0 2.6 0.00 0.02 0.02 40 1020.7
20260503001804 73 44 0.9 2.6 0.00 0.02 0.02 36 1020.7
20260503001304 74 44 1.7 5.2 0.00 0.02 0.02 36 1020.7
20260503000804 74 355 0.0 2.6 0.00 0.02 0.02 35 1020.6
20260503000304 75 356 2.6 5.2 0.00 0.02 0.02 34 1020.7
20260502234805 76 0 2.6 4.3 0.00 0.02 0.02 33 1020.6
20260502234304 76 30 1.7 4.3 0.00 0.02 0.02 34 1020.6
20260502233804 75 31 0.9 2.6 0.00 0.02 0.02 35 1020.6
20260502233304 75 32 2.6 10.4 0.00 0.02 0.02 35 1020.6
20260502231304 75 326 4.3 8.7 0.00 0.02 0.02 35 1020.5
20260502230804 74 40 2.6 5.2 0.00 0.02 0.02 35 1020.6
20260502230304 75 113 5.2 8.7 0.00 0.02 0.02 34 1020.6
20260502224805 75 92 2.6 5.2 0.00 0.03 0.02 33 1020.5
20260502224304 75 78 4.3 11.3 0.00 0.03 0.02 33 1020.6
20260502221804 76 15 4.3 8.7 0.00 0.04 0.02 32 1020.6
20260502221304 76 355 3.5 8.7 0.00 0.04 0.02 32 1020.7
20260502220805 75 324 4.3 8.7 0.00 0.05 0.02 32 1020.7
20260502220305 75 331 5.2 13.9 0.00 0.06 0.02 34 1020.7
20260502214804 76 48 2.6 10.4 0.00 0.07 0.02 30 1020.8
20260502214304 76 36 1.7 7.0 0.00 0.07 0.02 31 1020.9
20260502213804 75 36 4.3 10.4 0.00 0.07 0.02 33 1021.0
20260502213305 75 0 6.1 12.2 0.00 0.07 0.02 33 1020.9
20260502211804 76 100 5.2 10.4 0.00 0.07 0.02 32 1021.1
20260502211304 76 59 6.1 11.3 0.00 0.07 0.02 31 1021.3
20260502210804 76 27 5.2 11.3 0.00 0.07 0.02 31 1021.2
20260502210304 76 320 5.2 11.3 0.00 0.07 0.02 31 1021.3
20260502204804 76 8 6.1 11.3 0.00 0.07 0.02 32 1021.7
20260502204304 75 344 8.7 14.8 0.00 0.07 0.02 32 1021.8
20260502203804 76 355 4.3 12.2 0.00 0.07 0.02 33 1021.8
20260502203304 76 25 4.3 10.4 0.00 0.07 0.02 32 1021.9
20260502201805 74 54 4.3 8.7 0.00 0.07 0.02 32 1022.1
20260502201304 75 84 6.1 13.0 0.00 0.07 0.02 32 1022.2
20260502200304 75 350 6.1 13.9 0.00 0.08 0.02 35 1022.1
20260502194804 75 16 3.5 5.2 0.00 0.08 0.02 39 1022.3
20260502194304 75 355 1.7 7.0 0.00 0.09 0.02 38 1022.3
20260502193804 74 25 2.6 7.0 0.00 0.10 0.02 37 1022.3
20260502193304 74 353 7.8 14.8 0.00 0.10 0.02 39 1022.4
20260502191804 74 42 4.3 13.0 0.00 0.10 0.02 39 1022.4
20260502191304 74 23 5.2 13.0 0.00 0.10 0.02 39 1022.4
20260502190304 73 352 6.1 13.0 0.00 0.10 0.02 40 1022.4
20260502184804 73 18 4.3 13.0 0.00 0.10 0.02 41 1022.7
20260502183804 73 333 5.2 13.0 0.00 0.12 0.02 41 1022.7
20260502183304 73 42 4.3 12.2 0.00 0.14 0.02 41 1022.8
20260502181804 72 16 4.3 10.4 0.00 0.27 0.02 43 1023.1
20260502181304 72 1 6.1 11.3 0.00 0.32 0.02 43 1023.1
20260502180804 72 349 6.1 11.3 0.00 0.33 0.02 45 1023.2
20260502180304 72 20 4.3 11.3 0.00 0.33 0.02 45 1023.2
20260502170304 69 340 6.1 12.2 0.01 0.35 0.02 51 1024.2
20260502164304 68 27 4.3 11.3 0.01 0.35 0.02 52 1024.2
20260502163804 68 22 4.3 12.2 0.01 0.35 0.02 53 1024.3
20260502163304 67 34 3.5 13.0 0.01 0.35 0.02 54 1024.3
20260502161804 66 350 6.1 11.3 0.01 0.35 0.02 53 1024.2
20260502161304 66 339 6.1 11.3 0.00 0.34 0.01 54 1024.3
20260502160804 67 353 6.1 10.4 0.00 0.34 0.01 53 1024.4
20260502151804 63 354 2.6 7.8 0.00 0.41 0.01 61 1024.4
20260502151304 63 339 4.3 7.0 0.00 0.41 0.01 61 1024.4
20260502150804 63 344 1.7 4.3 0.00 0.41 0.01 64 1024.3
20260502150304 62 352 4.3 10.4 0.00 0.41 0.01 66 1024.3
20260502123804 47 65 0.9 2.6 0.01 0.55 0.01 88 1023.1
20260502121804 46 315 0.9 0.9 0.00 0.54 0.00 88 1022.6
20260502121304 46 315 0.0 0.0 0.00 0.54 0.00 87 1022.5
20260502120804 46 315 0.0 0.9 0.00 0.56 0.00 87 1022.3
20260502114804 46 315 0.0 0.0 0.00 0.56 0.00 87 1022.0
20260502114304 46 315 0.0 0.0 0.00 0.57 0.00 87 1021.9
20260502113804 46 315 0.9 1.7 0.00 0.58 0.00 87 1021.8
20260502113304 46 315 0.9 2.6 0.00 0.58 0.00 87 1021.8
20260502111804 46 315 0.9 2.6 0.00 0.61 0.00 87 1021.7
20260502110804 47 315 0.0 0.0 0.00 0.63 0.00 87 1021.6
20260502104804 47 313 0.9 1.7 0.00 0.63 0.00 87 1021.4
20260502104304 48 313 0.0 0.0 0.00 0.64 0.00 87 1021.3
20260502103804 48 313 0.0 0.0 0.00 0.66 0.00 87 1021.1
20260502103304 48 313 0.0 0.0 0.00 0.68 0.00 87 1021.1
20260502101304 48 313 0.0 0.0 0.00 0.70 0.00 87 1020.6
20260502100804 48 350 0.0 1.7 0.00 0.70 0.00 87 1020.5
20260502100304 48 350 0.9 2.6 0.00 0.70 0.00 87 1020.5
20260502091304 48 350 0.0 0.0 0.00 0.71 0.00 87 1020.0
20260502090804 48 350 0.0 0.0 0.00 0.71 0.00 87 1020.0
20260502090304 48 350 0.9 2.6 0.00 0.71 0.00 87 1020.0
20260502071307 49 325 1.7 4.3 0.00 0.72 0.00 87 1019.8
20260502070307 49 323 0.9 4.3 0.00 0.72 0.00 87 1019.8